{"data":{"norad_id":59578,"epoch":"2026-05-25T02:31:50.307168Z","epoch_age_seconds":66681,"freshness":"FRESH","line1":"1 59578U 24076Q   26145.10544337  .00006276  00000+0  23734-3 0  9990","line2":"2 59578  42.9992 297.0808 0001174 273.9842  86.0876 15.27587005118198","mean_motion":15.27587005,"eccentricity":0.0001174,"inclination_deg":42.9992,"raan_deg":297.0808,"arg_perigee_deg":273.9842,"mean_anomaly_deg":86.0876,"bstar":0.00023734,"rev_number":11819,"period_min":94.266316438061,"perigee_km":482.22261984461,"apogee_km":483.83362141493,"semimajor_km":6861.1651206298,"source":"CELESTRAK","updated_at":"2026-05-25T13:38:18.987449Z"}}